Regional Weather Roundup
Issued by NWS

Home | Current Version | Previous Version | Graphics & Text | Print | Product List | Glossary On
Versions: 1 2 3 4 5 6 7 8 9 10 11 12 13 14 15 16 17 18 19 20 21 22 23 24 25 26 27 28 29 30 31 32 33 34 35 36 37 38 39 40 41 42 43 44 45 46 47 48 49 50
000
ASUS43 KLSX 201107
RWRMO

WEATHER SUMMARY FOR MISSOURI
NATIONAL WEATHER SERVICE SPRINGFIELD MO
500 AM CST SAT DEC 20 2014

NOTE: "FAIR" INDICATES FEW OR NO CLOUDS BELOW 12,000 FEET WITH NO
       SIGNIFICANT WEATHER AND/OR OBSTRUCTIONS TO VISIBILITY.
       CURRENT SKY AND/OR WEATHER CONDITIONS ARE NOT AVAILABLE FOR
       CHILLICOTHE AND FARMINGTON.

MOZ001>031-035>038-043-044-053-054-201200-
...NORTHERN AND WESTERN MISSOURI...

CITY           SKY/WX    TMP DP  RH WIND       PRES   REMARKS
KANSAS CTY INT CLOUDY    32  30  92 S7        30.18F WCI  26
KANSAS C DTWN  CLOUDY    35  31  85 SW5       30.20S
LEE`S SUMMIT   CLOUDY    33  32  96 W3        30.19S
ST JOSEPH      CLOUDY    33  29  85 SE9       30.17F WCI  25
CHILLICOTHE      N/A     34  33  96 CALM      30.21S
KIRKSVILLE     CLOUDY    32  32 100 SE6       30.20F FOG     WCI  26

$$
MOZ066>068-077>081-088>096-101>105-201200-
...SOUTHWEST MISSOURI...

CITY           SKY/WX    TMP DP  RH WIND       PRES   REMARKS
SPRINGFIELD    CLOUDY    37  36  96 S5        30.19S FOG
JOPLIN         CLOUDY    38  36  92 W5        30.22R

$$
MOZ032>034-039>042-045>050-055>058-069>072-201200-
...CENTRAL MISSOURI...

CITY           SKY/WX    TMP DP  RH WIND       PRES   REMARKS
COLUMBIA       CLOUDY    35  34  96 SE3       30.21S FOG
JEFFERSON CITY CLOUDY    37  34  89 E5        30.23F FOG
ROLLA          CLOUDY    34  32  92 SE3       30.18F FOG
SEDALIA        FOG       38  37  97 SE5       30.19F VSB 1/2
WHITEMAN AFB   CLOUDY    37  36  93 W3        30.19F FOG
WARRENSBURG    CLOUDY    36  34  93 W3        30.20S FOG
OSAGE BEACH    CLOUDY    37  34  87 SE3       30.19F

$$
MOZ051-052-059>065-201200-
...EAST CENTRAL MISSOURI...

CITY           SKY/WX    TMP DP  RH WIND       PRES   REMARKS
ST LOUIS INTL  CLOUDY    36  27  69 S3        30.25S
SPIRIT OF STL  CLOUDY    34  29  82 CALM      30.25S
ST CHARLES     CLOUDY    34  31  88 E5        30.25F FOG     WCI  30

$$
MOZ072>076-082>087-097>100-106>115-201200-
...SOUTH CENTRAL AND SOUTHEAST MISSOURI...

CITY           SKY/WX    TMP DP  RH WIND       PRES   REMARKS
CAPE GIRARDEAU CLOUDY    35  30  82 NE5       30.27R
FARMINGTON     CLOUDY    34  32  93 CALM      30.24S
POPLAR BLUFF   CLOUDY    37  32  82 NE5       30.25S
WEST PLAINS    CLOUDY    34  31  88 CALM      30.21R

$$


USA.gov is the U.S. government's official web portal to all federal, state and local government web resources and services.